Weather History for Cleveland Burke, OH

Change the Weather History Date:

Friday, February 1, 2013

  Actual Average Record
Temperature  
Mean Temperature 18 °F -  
Max Temperature 21 °F 35 °F 57 °F (2002)
Min Temperature 14 °F 23 °F 10 °F (2004)
Degree Days  
Heating Degree Days 48    
Moisture  
Dew Point 11 °F    
Average Humidity 76    
Maximum Humidity 92    
Minimum Humidity 65    
Precipitation  
Precipitation 0.01 in - - ()
Sea Level Pressure  
Sea Level Pressure 30.08 in    
Wind  
Wind Speed 24 mph (WSW)    
Max Wind Speed 30 mph    
Max Gust Speed 38 mph    
Visibility 5 miles    
Events Fog , Snow    
Averages and records for this station are not official NWS values.
T = Trace of Precipitation, MM = Missing Value Source: NWS Daily Summary

Daily Weather History Graph

Daily Weather History Graph

Search for Another Location

Airport:

Trip Planner

Search our weather history database for the weather conditions in past years. The results will help you decide how hot, cold, wet, or windy it might be!

Date:

Astronomy

Feb. 01, 2013 Rise Set
Actual Time 7:38 AM EST 5:43 PM EST
Civil Twilight 7:08 AM EST 6:12 PM EST
Nautical Twilight 6:35 AM EST 6:45 PM EST
Astronomical Twilight 6:03 AM EST 7:18 PM EST
Moon 11:54 PM EST (2/1) 10:05 AM EST (2/1)
Length of Visible Light 11h 03m
Length of Day
10h 04m
Waning Gibbous, 70% of the Moon is Illuminated
Feb 1
Waning Gibbous
Feb 3
Last Quarter
Feb 10
New
Feb 17
First Quarter
Feb 25
Full

Hourly Weather History & Observations

Time (EST) Temp. Windchill Dew Point Humidity Pressure Visibility Wind Dir Wind Speed Gust Speed Precip Events Conditions
12:53 AM 21.0 °F 4.3 °F 14.0 °F 74% 29.88 in 3.0 mi West 24.2 mph 32.2 mph 0.00 in Snow Light Snow
1:02 AM 21.2 °F 5.2 °F 12.2 °F 68% 29.85 in 2.5 mi West 21.9 mph 33.4 mph 0.00 in Snow Light Snow
1:09 AM 21.2 °F 4.5 °F 12.2 °F 68% 29.85 in 7.0 mi West 24.2 mph 33.4 mph 0.00 in Snow Light Snow
1:22 AM 21.2 °F 5.2 °F 12.2 °F 68% 29.85 in 7.0 mi WNW 21.9 mph 29.9 mph 0.00 in Snow Light Snow
1:53 AM 21.0 °F 3.6 °F 12.9 °F 71% 29.89 in 6.0 mi West 26.5 mph 34.5 mph 0.00 in Snow Light Snow
2:04 AM 21.2 °F 5.2 °F 12.2 °F 68% 29.87 in 4.0 mi WNW 21.9 mph 35.7 mph 0.00 in Snow Light Snow
2:15 AM 21.2 °F 4.9 °F 15.8 °F 80% 29.87 in 1.8 mi WNW 23.0 mph 35.7 mph 0.00 in Snow Light Snow
2:43 AM 19.4 °F 2.1 °F 15.8 °F 86% 29.89 in 3.0 mi WNW 24.2 mph 35.7 mph 0.00 in Snow Light Snow
2:47 AM 19.4 °F 0.5 °F 15.8 °F 86% 29.89 in 1.5 mi WNW 29.9 mph 35.7 mph 0.00 in Snow Light Snow
2:53 AM 19.0 °F 0.3 °F 15.1 °F 85% 29.92 in 0.8 mi WNW 28.8 mph 34.5 mph 0.00 in Snow Light Snow
3:04 AM 19.4 °F 1.8 °F 14.0 °F 80% 29.89 in 2.0 mi WNW 25.3 mph 33.4 mph 0.00 in Snow Light Snow
3:11 AM 19.4 °F 1.8 °F 14.0 °F 80% 29.89 in 5.0 mi WNW 25.3 mph 35.7 mph 0.00 in Snow Light Snow
3:27 AM 19.4 °F 1.8 °F 14.0 °F 80% 29.90 in 2.5 mi WNW 25.3 mph 36.8 mph 0.00 in Snow Light Snow
3:33 AM 19.4 °F 1.8 °F 15.8 °F 86% 29.90 in 3.0 mi WNW 25.3 mph 32.2 mph 0.00 in Snow Light Snow
3:53 AM 21.0 °F 3.0 °F 12.0 °F 68% 29.94 in 8.0 mi WNW 28.8 mph 35.7 mph 0.00 in Snow Light Snow
4:53 AM 21.0 °F 3.0 °F 12.9 °F 71% 29.97 in 7.0 mi WNW 28.8 mph 35.7 mph 0.00 in Snow Light Snow
5:53 AM 19.9 °F 1.3 °F 10.9 °F 68% 30.01 in 9.0 mi WNW 29.9 mph 38.0 mph 0.00 in Snow Light Snow
6:16 AM 19.4 °F 2.5 °F 14.0 °F 80% 30.01 in 1.8 mi WSW 23.0 mph 36.8 mph 0.00 in Snow Light Snow
6:22 AM 17.6 °F -0.6 °F 12.2 °F 79% 30.01 in 0.8 mi WSW 25.3 mph 32.2 mph 0.00 in Snow Light Snow
6:26 AM 17.6 °F -0.6 °F 12.2 °F 79% 30.01 in 1.0 mi WSW 25.3 mph 32.2 mph 0.00 in Snow Light Snow
6:28 AM 17.6 °F -0.6 °F 14.0 °F 86% 30.02 in 0.8 mi WSW 25.3 mph 33.4 mph 0.00 in Snow Light Snow
6:31 AM 17.6 °F -0.6 °F 14.0 °F 86% 30.02 in 0.5 mi WSW 25.3 mph 33.4 mph 0.00 in Snow Light Snow
6:53 AM 16.0 °F -2.5 °F 12.9 °F 88% 30.06 in 0.8 mi WSW 24.2 mph 33.4 mph 0.00 in Snow Light Snow
7:01 AM 15.8 °F -4.1 °F 12.2 °F 86% 30.04 in 0.8 mi WSW 28.8 mph 35.7 mph 0.00 in Snow Light Snow
7:46 AM 15.8 °F -4.1 °F 12.2 °F 86% 30.07 in 1.0 mi WSW 28.8 mph 38.0 mph 0.00 in Snow Light Snow
7:53 AM 15.1 °F -5.0 °F 10.9 °F 84% 30.11 in 1.2 mi WSW 28.8 mph 36.8 mph 0.00 in Snow Light Snow
8:33 AM 15.8 °F -3.4 °F 12.2 °F 86% 30.11 in 0.5 mi WSW 26.5 mph - 0.00 in Fog , Snow Snow
8:53 AM 14.0 °F -5.1 °F 12.0 °F 92% 30.15 in 0.2 mi WSW 24.2 mph 33.4 mph 0.00 in Fog , Snow Snow
10:40 AM 15.8 °F -2.3 °F 10.4 °F 79% 30.18 in 0.8 mi WSW 23.0 mph 33.4 mph 0.01 in Snow Light Snow
10:51 AM 15.8 °F -2.3 °F 10.4 °F 79% 30.19 in 1.0 mi WSW 23.0 mph 29.9 mph 0.01 in Snow Light Snow
10:53 AM 16.0 °F -2.5 °F 10.0 °F 77% 30.22 in 1.0 mi WSW 24.2 mph 29.9 mph 0.01 in Snow Light Snow
11:10 AM 15.8 °F -3.4 °F 10.4 °F 79% 30.19 in 3.0 mi WSW 26.5 mph 32.2 mph 0.00 in Snow Light Snow
11:53 AM 17.1 °F -0.3 °F 10.0 °F 74% 30.24 in 3.0 mi WSW 21.9 mph 29.9 mph 0.00 in Snow Light Snow
12:53 PM 16.0 °F -2.1 °F 9.0 °F 74% 30.25 in 5.0 mi WSW 23.0 mph - 0.00 in Snow Light Snow
1:06 PM 17.6 °F 0.5 °F 10.4 °F 73% 30.21 in 6.0 mi WSW 21.9 mph 27.6 mph 0.00 in Snow Light Snow
1:15 PM 17.6 °F 0.9 °F 10.4 °F 73% 30.22 in 8.0 mi WSW 20.7 mph 28.8 mph 0.00 in Snow Light Snow
1:30 PM 17.6 °F 0.5 °F 8.6 °F 68% 30.22 in 9.0 mi WSW 21.9 mph 28.8 mph 0.00 in   Overcast
1:53 PM 17.1 °F 0.6 °F 9.0 °F 71% 30.25 in 10.0 mi WSW 19.6 mph 26.5 mph 0.00 in   Overcast
2:53 PM 18.0 °F 1.3 °F 9.0 °F 68% 30.25 in 10.0 mi WSW 20.7 mph 27.6 mph 0.00 in   Overcast
3:53 PM 18.0 °F 0.6 °F 8.1 °F 65% 30.27 in 10.0 mi WSW 23.0 mph 28.8 mph N/A   Overcast
4:53 PM 17.1 °F 0.6 °F 8.1 °F 68% 30.28 in 10.0 mi SW 19.6 mph - N/A   Mostly Cloudy
5:53 PM 16.0 °F -0.9 °F 7.0 °F 68% 30.29 in 10.0 mi SW 19.6 mph 27.6 mph N/A   Overcast
6:53 PM 16.0 °F 0.1 °F 6.1 °F 65% 30.31 in 10.0 mi WSW 17.3 mph - N/A   Overcast
7:53 PM 16.0 °F 0.1 °F 6.1 °F 65% 30.32 in 10.0 mi SW 17.3 mph - N/A   Overcast
8:53 PM 15.1 °F -1.1 °F 6.1 °F 68% 30.32 in 10.0 mi SW 17.3 mph 24.2 mph N/A   Overcast
9:53 PM 15.1 °F -2.5 °F 6.1 °F 68% 30.33 in 10.0 mi SW 20.7 mph 25.3 mph N/A   Overcast
10:53 PM 15.1 °F -1.1 °F 6.1 °F 68% 30.32 in 10.0 mi SW 17.3 mph - N/A   Overcast
11:53 PM 15.1 °F 0.5 °F 7.0 °F 70% 30.32 in 10.0 mi SW 13.8 mph - 0.00 in   Overcast